Time,TemperatureF,DewpointF,PressureIn,WindDirection,WindDirectionDegrees,WindSpeedMPH,WindSpeedGustMPH,Humidity,HourlyPrecipIn,Conditions,Clouds,dailyrainin,SoftwareType,DateUTC
2013-05-29 00:03:00,71.1,13.8,29.44,West,270,6.0,6.9,11,0.00,,,0.00,meteobridge,2013-05-29 06:03:00,
2013-05-29 00:08:00,71.1,13.8,29.44,SSW,210,4.0,6.0,11,0.00,,,0.00,meteobridge,2013-05-29 06:08:00,
2013-05-29 00:13:00,71.2,11.8,29.44,West,273,0.0,4.9,10,0.00,,,0.00,meteobridge,2013-05-29 06:13:00,
2013-05-29 00:18:00,70.9,13.8,29.44,West,262,2.0,2.9,11,0.00,,,0.00,meteobridge,2013-05-29 06:18:00,
2013-05-29 00:23:00,70.0,15.1,29.44,West,273,0.0,2.9,12,0.00,,,0.00,meteobridge,2013-05-29 06:23:00,
2013-05-29 00:28:00,69.6,14.7,29.44,West,273,0.0,2.0,12,0.00,,,0.00,meteobridge,2013-05-29 06:28:00,
2013-05-29 00:33:00,69.1,14.4,29.45,WSW,240,0.0,0.9,12,0.00,,,0.00,meteobridge,2013-05-29 06:33:00,
2013-05-29 00:39:00,69.3,14.5,29.44,WSW,255,0.9,2.9,12,0.00,,,0.00,meteobridge,2013-05-29 06:39:00,
2013-05-29 00:44:00,69.3,16.3,29.45,SW,231,0.0,4.0,13,0.00,,,0.00,meteobridge,2013-05-29 06:44:00,
2013-05-29 00:49:00,69.4,16.5,29.44,WSW,237,2.9,6.0,13,0.00,,,0.00,meteobridge,2013-05-29 06:49:00,
2013-05-29 00:54:00,70.0,16.9,29.45,West,275,0.9,2.0,13,0.00,,,0.00,meteobridge,2013-05-29 06:54:00,
2013-05-29 00:59:00,69.8,16.7,29.45,West,270,0.0,2.9,13,0.00,,,0.00,meteobridge,2013-05-29 06:59:00,
2013-05-29 01:04:00,69.4,16.5,29.45,WNW,289,0.0,2.0,13,0.00,,,0.00,meteobridge,2013-05-29 07:04:00,
2013-05-29 01:09:00,69.1,16.2,29.45,WSW,252,0.0,2.0,13,0.00,,,0.00,meteobridge,2013-05-29 07:09:00,
2013-05-29 01:14:00,68.7,15.8,29.45,SW,229,0.0,4.0,13,0.00,,,0.00,meteobridge,2013-05-29 07:14:00,
2013-05-29 01:19:00,68.4,17.2,29.45,WSW,242,2.9,2.9,14,0.00,,,0.00,meteobridge,2013-05-29 07:19:00,
2013-05-29 01:24:00,68.4,17.2,29.45,SW,214,0.9,4.0,14,0.00,,,0.00,meteobridge,2013-05-29 07:24:00,
2013-05-29 01:29:00,68.0,17.1,29.45,SW,230,2.0,2.9,14,0.00,,,0.00,meteobridge,2013-05-29 07:29:00,
2013-05-29 01:34:00,67.5,18.1,29.45,SW,223,2.0,2.9,15,0.00,,,0.00,meteobridge,2013-05-29 07:34:00,
2013-05-29 01:39:00,67.1,18.0,29.44,WSW,240,0.0,0.9,15,0.00,,,0.00,meteobridge,2013-05-29 07:39:00,
2013-05-29 01:44:00,66.9,17.8,29.44,WSW,244,2.0,4.9,15,0.00,,,0.00,meteobridge,2013-05-29 07:44:00,
2013-05-29 01:49:00,67.3,19.6,29.45,WSW,242,0.0,2.9,16,0.00,,,0.00,meteobridge,2013-05-29 07:49:00,
2013-05-29 01:55:00,67.3,19.6,29.45,WSW,240,0.9,6.9,16,0.00,,,0.00,meteobridge,2013-05-29 07:55:00,
2013-05-29 02:00:00,67.3,19.6,29.45,WSW,258,0.0,4.0,16,0.00,,,0.00,meteobridge,2013-05-29 08:00:00,
2013-05-29 02:05:00,67.3,19.6,29.45,WNW,296,0.9,4.9,16,0.00,,,0.00,meteobridge,2013-05-29 08:05:00,
2013-05-29 02:10:00,67.3,19.6,29.44,West,265,0.0,4.9,16,0.00,,,0.00,meteobridge,2013-05-29 08:10:00,
2013-05-29 02:15:00,67.3,21.0,29.44,SW,229,0.9,2.0,17,0.00,,,0.00,meteobridge,2013-05-29 08:15:00,
2013-05-29 02:20:00,66.9,20.7,29.44,WSW,243,0.0,2.0,17,0.00,,,0.00,meteobridge,2013-05-29 08:20:00,
2013-05-29 02:25:00,66.7,20.5,29.45,WSW,246,0.0,2.9,17,0.00,,,0.00,meteobridge,2013-05-29 08:25:00,
2013-05-29 02:30:00,66.7,20.5,29.45,WSW,244,0.9,2.9,17,0.00,,,0.00,meteobridge,2013-05-29 08:30:00,
2013-05-29 02:36:00,66.7,20.5,29.45,WNW,294,0.0,0.9,17,0.00,,,0.00,meteobridge,2013-05-29 08:36:00,
2013-05-29 02:41:00,66.6,20.3,29.45,North,5,0.9,2.9,17,0.00,,,0.00,meteobridge,2013-05-29 08:41:00,
2013-05-29 02:46:00,66.2,20.1,29.44,West,263,0.0,0.9,17,0.00,,,0.00,meteobridge,2013-05-29 08:46:00,
2013-05-29 02:51:00,66.0,19.9,29.44,West,263,0.0,0.9,17,0.00,,,0.00,meteobridge,2013-05-29 08:51:00,
2013-05-29 02:56:00,65.5,20.8,29.44,WNW,285,2.0,2.9,18,0.00,,,0.00,meteobridge,2013-05-29 08:56:00,
2013-05-29 03:01:00,65.7,22.3,29.45,West,263,2.0,2.0,19,0.00,,,0.00,meteobridge,2013-05-29 09:01:00,
2013-05-29 03:06:00,65.5,23.4,29.45,West,260,0.0,2.0,20,0.00,,,0.00,meteobridge,2013-05-29 09:06:00,
2013-05-29 03:12:00,65.1,23.0,29.44,West,260,0.0,0.0,20,0.00,,,0.00,meteobridge,2013-05-29 09:12:00,
2013-05-29 03:17:00,64.8,23.9,29.44,West,272,0.0,0.9,21,0.00,,,0.00,meteobridge,2013-05-29 09:17:00,
2013-05-29 03:22:00,64.9,25.2,29.44,NW,322,0.9,4.9,22,0.00,,,0.00,meteobridge,2013-05-29 09:22:00,
2013-05-29 03:27:00,65.5,25.7,29.44,North,355,0.0,2.9,22,0.00,,,0.00,meteobridge,2013-05-29 09:27:00,
2013-05-29 03:32:00,65.7,24.6,29.45,NW,305,2.0,2.9,21,0.00,,,0.00,meteobridge,2013-05-29 09:32:00,
2013-05-29 03:37:00,65.7,24.6,29.44,NW,304,0.9,2.9,21,0.00,,,0.00,meteobridge,2013-05-29 09:37:00,
2013-05-29 03:42:00,65.5,25.7,29.44,NW,311,0.0,2.0,22,0.00,,,0.00,meteobridge,2013-05-29 09:42:00,
2013-05-29 03:47:00,65.3,25.5,29.44,West,265,0.9,4.0,22,0.00,,,0.00,meteobridge,2013-05-29 09:47:00,
2013-05-29 03:52:00,65.3,25.5,29.44,NNW,338,0.0,4.0,22,0.00,,,0.00,meteobridge,2013-05-29 09:52:00,
2013-05-29 03:57:00,64.9,25.2,29.44,NNW,340,0.0,2.0,22,0.00,,,0.00,meteobridge,2013-05-29 09:57:00,
2013-05-29 04:02:00,64.6,25.9,29.44,NNW,337,0.0,2.0,23,0.00,,,0.00,meteobridge,2013-05-29 10:02:00,
2013-05-29 04:07:00,64.2,25.7,29.45,NNW,346,0.9,2.0,23,0.00,,,0.00,meteobridge,2013-05-29 10:07:00,
2013-05-29 04:12:00,64.0,25.5,29.45,NNW,346,0.0,0.9,23,0.00,,,0.00,meteobridge,2013-05-29 10:12:00,
2013-05-29 04:17:00,63.7,25.2,29.44,NNW,347,2.9,4.0,23,0.00,,,0.00,meteobridge,2013-05-29 10:17:00,
2013-05-29 04:22:00,63.3,25.9,29.44,NNW,340,0.9,2.0,24,0.00,,,0.00,meteobridge,2013-05-29 10:22:00,
2013-05-29 04:28:00,63.3,25.9,29.44,NNW,338,0.9,2.0,24,0.00,,,0.00,meteobridge,2013-05-29 10:28:00,
2013-05-29 04:33:00,63.1,25.7,29.44,NNW,347,2.9,6.9,24,0.00,,,0.00,meteobridge,2013-05-29 10:33:00,
2013-05-29 04:38:00,63.3,25.9,29.44,NNW,337,0.0,4.0,24,0.00,,,0.00,meteobridge,2013-05-29 10:38:00,
2013-05-29 04:43:00,63.1,26.8,29.44,NNE,14,0.9,2.9,25,0.00,,,0.00,meteobridge,2013-05-29 10:43:00,
2013-05-29 04:48:00,63.0,26.6,29.44,North,349,2.0,4.0,25,0.00,,,0.00,meteobridge,2013-05-29 10:48:00,
2013-05-29 04:53:00,62.8,27.3,29.44,North,355,0.9,4.0,26,0.00,,,0.00,meteobridge,2013-05-29 10:53:00,
2013-05-29 04:58:00,62.4,28.0,29.44,NW,321,0.9,4.0,27,0.00,,,0.00,meteobridge,2013-05-29 10:58:00,
2013-05-29 05:03:00,62.2,28.8,29.44,NNW,328,0.0,6.0,28,0.00,,,0.00,meteobridge,2013-05-29 11:03:00,
2013-05-29 05:08:00,62.2,29.7,29.45,North,0,6.0,6.0,29,0.00,,,0.00,meteobridge,2013-05-29 11:08:00,
2013-05-29 05:13:00,62.1,29.5,29.45,North,355,0.0,4.9,29,0.00,,,0.00,meteobridge,2013-05-29 11:13:00,
2013-05-29 05:18:00,61.9,30.0,29.45,North,351,2.0,4.9,30,0.00,,,0.00,meteobridge,2013-05-29 11:18:00,
2013-05-29 05:23:00,61.9,30.9,29.45,NNW,345,0.9,6.9,31,0.00,,,0.00,meteobridge,2013-05-29 11:23:00,
2013-05-29 05:28:00,61.9,31.6,29.45,NNW,338,2.0,6.9,32,0.00,,,0.00,meteobridge,2013-05-29 11:28:00,
2013-05-29 05:34:00,61.5,31.5,29.46,North,355,2.9,4.0,32,0.00,,,0.00,meteobridge,2013-05-29 11:34:00,
2013-05-29 05:39:00,61.3,32.0,29.46,North,355,0.9,4.0,33,0.00,,,0.00,meteobridge,2013-05-29 11:39:00,
2013-05-29 05:44:00,61.3,32.0,29.45,North,0,0.9,4.9,33,0.00,,,0.00,meteobridge,2013-05-29 11:44:00,
2013-05-29 05:49:00,61.2,31.8,29.45,North,0,0.0,0.0,33,0.00,,,0.00,meteobridge,2013-05-29 11:49:00,
2013-05-29 05:54:00,61.0,32.4,29.45,North,5,2.0,4.0,34,0.00,,,0.00,meteobridge,2013-05-29 11:54:00,
2013-05-29 05:59:00,61.2,32.5,29.45,NNW,346,0.0,0.9,34,0.00,,,0.00,meteobridge,2013-05-29 11:59:00,
2013-05-29 06:04:00,60.6,32.9,29.45,NNW,347,0.9,2.0,35,0.00,,,0.00,meteobridge,2013-05-29 12:04:00,
2013-05-29 06:09:00,60.4,33.4,29.45,NNW,346,0.0,0.0,36,0.00,,,0.00,meteobridge,2013-05-29 12:09:00,
2013-05-29 06:14:00,60.3,33.3,29.45,NNW,346,0.0,0.0,36,0.00,,,0.00,meteobridge,2013-05-29 12:14:00,
2013-05-29 06:19:00,60.1,33.1,29.45,NNW,347,0.0,0.0,36,0.00,,,0.00,meteobridge,2013-05-29 12:19:00,
2013-05-29 06:25:00,59.9,33.6,29.45,NNW,347,0.0,0.0,37,0.00,,,0.00,meteobridge,2013-05-29 12:25:00,
2013-05-29 06:30:00,59.7,34.0,29.45,NNW,347,0.0,0.0,38,0.00,,,0.00,meteobridge,2013-05-29 12:30:00,
2013-05-29 06:35:00,59.4,34.3,29.45,NNW,347,0.9,2.0,39,0.00,,,0.00,meteobridge,2013-05-29 12:35:00,
2013-05-29 06:40:00,59.5,34.5,29.45,NNW,346,0.0,0.9,39,0.00,,,0.00,meteobridge,2013-05-29 12:40:00,
2013-05-29 06:45:00,59.7,34.7,29.45,NNW,346,0.0,0.9,39,0.00,,,0.00,meteobridge,2013-05-29 12:45:00,
2013-05-29 06:50:00,60.3,35.2,29.45,NNW,347,0.0,0.9,39,0.00,,,0.00,meteobridge,2013-05-29 12:50:00,
2013-05-29 06:55:00,60.6,34.9,29.44,NNW,346,0.0,0.9,38,0.00,,,0.00,meteobridge,2013-05-29 12:55:00,
2013-05-29 07:00:00,61.0,35.8,29.45,NNW,346,0.0,0.0,39,0.00,,,0.00,meteobridge,2013-05-29 13:00:00,
2013-05-29 07:05:00,61.2,36.0,29.44,NNW,347,0.0,0.9,39,0.00,,,0.00,meteobridge,2013-05-29 13:05:00,
2013-05-29 07:10:00,61.3,36.1,29.45,NNW,347,0.0,0.0,39,0.00,,,0.00,meteobridge,2013-05-29 13:10:00,
2013-05-29 07:15:00,61.3,35.6,29.45,NNW,346,0.0,0.0,38,0.00,,,0.00,meteobridge,2013-05-29 13:15:00,
2013-05-29 07:20:00,61.5,35.1,29.45,NNW,342,0.9,2.9,37,0.00,,,0.00,meteobridge,2013-05-29 13:20:00,
2013-05-29 07:25:00,61.9,36.0,29.45,North,355,0.0,2.0,38,0.00,,,0.00,meteobridge,2013-05-29 13:25:00,
2013-05-29 07:30:00,62.2,35.6,29.45,North,355,0.0,0.0,37,0.00,,,0.00,meteobridge,2013-05-29 13:30:00,
2013-05-29 07:35:00,62.6,36.0,29.45,North,355,0.0,0.0,37,0.00,,,0.00,meteobridge,2013-05-29 13:35:00,
2013-05-29 07:41:00,63.1,36.5,29.44,North,355,0.0,2.0,37,0.00,,,0.00,meteobridge,2013-05-29 13:41:00,
2013-05-29 07:46:00,63.9,37.0,29.45,North,5,2.0,2.9,37,0.00,,,0.00,meteobridge,2013-05-29 13:46:00,
2013-05-29 07:51:00,64.2,36.7,29.44,NNE,13,0.9,2.9,36,0.00,,,0.00,meteobridge,2013-05-29 13:51:00,
2013-05-29 07:56:00,64.8,37.2,29.44,North,350,0.9,4.9,36,0.00,,,0.00,meteobridge,2013-05-29 13:56:00,
2013-05-29 08:01:00,65.3,36.9,29.44,WNW,291,0.9,2.9,35,0.00,,,0.00,meteobridge,2013-05-29 14:01:00,
2013-05-29 08:06:00,65.3,36.1,29.45,North,0,0.0,0.9,34,0.00,,,0.00,meteobridge,2013-05-29 14:06:00,
2013-05-29 08:11:00,65.5,37.8,29.45,NNW,335,0.0,2.9,36,0.00,,,0.00,meteobridge,2013-05-29 14:11:00,
2013-05-29 08:16:00,66.0,37.6,29.45,NNW,338,0.9,6.0,35,0.00,,,0.00,meteobridge,2013-05-29 14:16:00,
2013-05-29 08:21:00,66.2,37.0,29.44,North,355,0.0,2.9,34,0.00,,,0.00,meteobridge,2013-05-29 14:21:00,
2013-05-29 08:26:00,66.0,36.9,29.44,NNW,339,4.0,4.9,34,0.00,,,0.00,meteobridge,2013-05-29 14:26:00,
2013-05-29 08:31:00,66.6,37.4,29.44,North,355,2.9,4.9,34,0.00,,,0.00,meteobridge,2013-05-29 14:31:00,
2013-05-29 08:36:00,66.9,36.9,29.44,North,5,2.9,4.0,33,0.00,,,0.00,meteobridge,2013-05-29 14:36:00,
2013-05-29 08:41:00,66.7,36.7,29.44,WNW,302,0.9,2.9,33,0.00,,,0.00,meteobridge,2013-05-29 14:41:00,
2013-05-29 08:47:00,67.1,37.0,29.45,North,355,0.9,0.9,33,0.00,,,0.00,meteobridge,2013-05-29 14:47:00,
2013-05-29 08:52:00,67.6,36.7,29.45,NNE,22,0.0,2.0,32,0.00,,,0.00,meteobridge,2013-05-29 14:52:00,
2013-05-29 08:57:00,67.5,36.5,29.45,NNW,343,0.9,0.9,32,0.00,,,0.00,meteobridge,2013-05-29 14:57:00,
2013-05-29 09:02:00,68.0,37.0,29.45,NW,324,2.9,6.0,32,0.00,,,0.00,meteobridge,2013-05-29 15:02:00,
2013-05-29 09:07:00,68.0,36.3,29.45,NNW,347,0.9,4.0,31,0.00,,,0.00,meteobridge,2013-05-29 15:07:00,
2013-05-29 09:12:00,67.8,35.2,29.45,North,11,0.0,2.0,30,0.00,,,0.00,meteobridge,2013-05-29 15:12:00,
2013-05-29 09:17:00,68.4,37.4,29.45,NNW,343,0.0,2.0,32,0.00,,,0.00,meteobridge,2013-05-29 15:17:00,
2013-05-29 09:22:00,69.1,36.3,29.45,SW,225,2.9,4.0,30,0.00,,,0.00,meteobridge,2013-05-29 15:22:00,
2013-05-29 09:27:00,68.5,36.0,29.45,SW,236,2.9,4.0,30,0.00,,,0.00,meteobridge,2013-05-29 15:27:00,
2013-05-29 09:32:00,68.7,35.2,29.45,West,261,2.0,6.9,29,0.00,,,0.00,meteobridge,2013-05-29 15:32:00,
2013-05-29 09:37:00,68.7,35.2,29.45,SW,227,2.0,4.9,29,0.00,,,0.00,meteobridge,2013-05-29 15:37:00,
2013-05-29 09:42:00,68.9,36.1,29.45,SE,135,2.9,2.9,30,0.00,,,0.00,meteobridge,2013-05-29 15:42:00,
2013-05-29 09:47:00,68.9,35.4,29.44,SW,215,2.0,6.9,29,0.00,,,0.00,meteobridge,2013-05-29 15:47:00,
2013-05-29 09:52:00,69.3,34.7,29.44,SSE,161,4.9,6.9,28,0.00,,,0.00,meteobridge,2013-05-29 15:52:00,
2013-05-29 09:57:00,70.0,36.3,29.44,SSE,154,2.9,4.0,29,0.00,,,0.00,meteobridge,2013-05-29 15:57:00,
2013-05-29 10:02:00,70.3,34.7,29.44,SW,214,2.9,6.0,27,0.00,,,0.00,meteobridge,2013-05-29 16:02:00,
2013-05-29 10:07:00,70.9,35.2,29.44,WNW,292,0.9,2.9,27,0.00,,,0.00,meteobridge,2013-05-29 16:07:00,
2013-05-29 10:12:00,71.2,33.6,29.44,SE,146,4.0,8.1,25,0.00,,,0.00,meteobridge,2013-05-29 16:12:00,
2013-05-29 10:17:00,71.2,33.6,29.44,SSW,213,4.0,6.0,25,0.00,,,0.00,meteobridge,2013-05-29 16:17:00,
2013-05-29 10:22:00,70.7,34.2,29.44,SSW,195,2.0,11.0,26,0.00,,,0.00,meteobridge,2013-05-29 16:22:00,
2013-05-29 10:27:00,71.6,34.0,29.44,SSE,161,2.9,6.9,25,0.00,,,0.00,meteobridge,2013-05-29 16:27:00,
2013-05-29 10:32:00,71.4,33.8,29.44,WSW,251,2.0,10.1,25,0.00,,,0.00,meteobridge,2013-05-29 16:32:00,
2013-05-29 10:37:00,71.6,34.0,29.44,WSW,242,4.0,4.0,25,0.00,,,0.00,meteobridge,2013-05-29 16:37:00,
2013-05-29 10:43:00,72.0,34.2,29.44,WSW,244,0.0,4.0,25,0.00,,,0.00,meteobridge,2013-05-29 16:43:00,
2013-05-29 10:48:00,73.0,35.1,29.43,West,281,0.0,2.0,25,0.00,,,0.00,meteobridge,2013-05-29 16:48:00,
2013-05-29 10:53:00,74.8,34.5,29.43,SW,229,4.0,6.0,23,0.00,,,0.00,meteobridge,2013-05-29 16:53:00,
2013-05-29 10:58:00,74.8,34.5,29.43,SW,228,2.0,2.0,23,0.00,,,0.00,meteobridge,2013-05-29 16:58:00,
2013-05-29 11:03:00,74.3,33.1,29.43,WSW,256,4.0,4.0,22,0.00,,,0.00,meteobridge,2013-05-29 17:03:00,
2013-05-29 11:08:00,75.0,32.4,29.44,SW,223,2.9,6.0,21,0.00,,,0.00,meteobridge,2013-05-29 17:08:00,
2013-05-29 11:13:00,74.5,32.0,29.43,SSW,209,6.0,6.9,21,0.00,,,0.00,meteobridge,2013-05-29 17:13:00,
2013-05-29 11:18:00,74.8,31.1,29.43,WNW,293,2.0,8.1,20,0.00,,,0.00,meteobridge,2013-05-29 17:18:00,
2013-05-29 11:23:00,75.6,30.4,29.43,North,5,2.0,6.0,19,0.00,,,0.00,meteobridge,2013-05-29 17:23:00,
2013-05-29 11:28:00,75.9,32.0,29.43,WNW,291,2.0,4.9,20,0.00,,,0.00,meteobridge,2013-05-29 17:28:00,
2013-05-29 11:33:00,77.2,31.8,29.43,NE,36,2.0,2.9,19,0.00,,,0.00,meteobridge,2013-05-29 17:33:00,
2013-05-29 11:38:00,76.3,32.2,29.42,NW,305,2.0,4.0,20,0.00,,,0.00,meteobridge,2013-05-29 17:38:00,
2013-05-29 11:43:00,76.3,30.9,29.43,WNW,295,4.0,4.9,19,0.00,,,0.00,meteobridge,2013-05-29 17:43:00,
2013-05-29 11:48:00,76.5,32.4,29.43,West,277,2.0,10.1,20,0.00,,,0.00,meteobridge,2013-05-29 17:48:00,
2013-05-29 11:53:00,74.5,30.7,29.43,WSW,237,2.9,6.9,20,0.00,,,0.00,meteobridge,2013-05-29 17:53:00,
2013-05-29 11:58:00,73.9,31.5,29.42,SSW,198,4.0,8.1,21,0.00,,,0.00,meteobridge,2013-05-29 17:58:00,
2013-05-29 12:03:00,75.7,29.3,29.43,SW,219,4.9,6.0,18,0.00,,,0.00,meteobridge,2013-05-29 18:03:00,
2013-05-29 12:08:00,76.6,28.6,29.42,SSW,202,4.0,6.0,17,0.00,,,0.00,meteobridge,2013-05-29 18:08:00,
2013-05-29 12:13:00,77.2,27.5,29.42,West,272,0.0,6.9,16,0.00,,,0.00,meteobridge,2013-05-29 18:13:00,
2013-05-29 12:18:00,76.5,25.3,29.43,West,268,2.9,6.0,15,0.00,,,0.00,meteobridge,2013-05-29 18:18:00,
2013-05-29 12:23:00,77.0,28.8,29.42,West,277,2.0,4.9,17,0.00,,,0.00,meteobridge,2013-05-29 18:23:00,
2013-05-29 12:28:00,79.5,29.5,29.42,NW,309,6.0,8.1,16,0.00,,,0.00,meteobridge,2013-05-29 18:28:00,
2013-05-29 12:33:00,78.6,25.5,29.42,WSW,254,6.0,6.9,14,0.00,,,0.00,meteobridge,2013-05-29 18:33:00,
2013-05-29 12:39:00,77.7,24.8,29.42,SW,219,11.0,11.0,14,0.00,,,0.00,meteobridge,2013-05-29 18:39:00,
2013-05-29 12:44:00,77.9,24.8,29.42,North,0,6.9,6.9,14,0.00,,,0.00,meteobridge,2013-05-29 18:44:00,
2013-05-29 12:49:00,76.8,24.1,29.42,NW,312,2.0,4.9,14,0.00,,,0.00,meteobridge,2013-05-29 18:49:00,
2013-05-29 12:54:00,78.1,25.0,29.42,NNW,337,2.9,8.9,14,0.00,,,0.00,meteobridge,2013-05-29 18:54:00,
2013-05-29 12:59:00,76.1,21.7,29.42,WNW,297,2.0,10.1,13,0.00,,,0.00,meteobridge,2013-05-29 18:59:00,
2013-05-29 13:04:00,76.8,22.3,29.41,NNW,337,0.9,4.9,13,0.00,,,0.00,meteobridge,2013-05-29 19:04:00,
2013-05-29 13:09:00,78.4,21.6,29.41,SSW,212,6.9,8.1,12,0.00,,,0.00,meteobridge,2013-05-29 19:09:00,
2013-05-29 13:14:00,78.8,17.6,29.41,SW,236,6.0,8.9,10,0.00,,,0.00,meteobridge,2013-05-29 19:14:00,
2013-05-29 13:19:00,78.6,19.8,29.41,SSW,201,2.0,6.9,11,0.00,,,0.00,meteobridge,2013-05-29 19:19:00,
2013-05-29 13:24:00,79.3,20.3,29.41,NNW,328,4.9,11.0,11,0.00,,,0.00,meteobridge,2013-05-29 19:24:00,
2013-05-29 13:29:00,79.7,20.5,29.41,SSW,212,2.9,10.1,11,0.00,,,0.00,meteobridge,2013-05-29 19:29:00,
2013-05-29 13:34:00,78.3,19.4,29.41,WSW,248,4.0,10.1,11,0.00,,,0.00,meteobridge,2013-05-29 19:34:00,
2013-05-29 13:39:00,79.3,18.0,29.41,South,181,2.0,11.0,10,0.00,,,0.00,meteobridge,2013-05-29 19:39:00,
2013-05-29 13:44:00,78.8,19.8,29.41,SW,225,0.0,6.0,11,0.00,,,0.00,meteobridge,2013-05-29 19:44:00,
2013-05-29 13:49:00,80.1,18.5,29.40,WSW,238,2.0,4.0,10,0.00,,,0.00,meteobridge,2013-05-29 19:49:00,
2013-05-29 13:54:00,78.4,19.6,29.40,WSW,255,4.0,8.9,11,0.00,,,0.00,meteobridge,2013-05-29 19:54:00,
2013-05-29 13:59:00,78.4,19.6,29.40,West,273,2.0,10.1,11,0.00,,,0.00,meteobridge,2013-05-29 19:59:00,
2013-05-29 14:04:00,78.1,19.2,29.40,NW,318,0.9,4.9,11,0.00,,,0.00,meteobridge,2013-05-29 20:04:00,
2013-05-29 14:09:00,79.2,20.1,29.40,SW,223,4.0,4.9,11,0.00,,,0.00,meteobridge,2013-05-29 20:09:00,
2013-05-29 14:14:00,79.0,22.1,29.39,SW,229,6.9,8.1,12,0.00,,,0.00,meteobridge,2013-05-29 20:14:00,
2013-05-29 14:19:00,81.1,21.6,29.39,SW,216,4.0,11.0,11,0.00,,,0.00,meteobridge,2013-05-29 20:19:00,
2013-05-29 14:24:00,80.2,21.0,29.39,West,278,6.9,6.9,11,0.00,,,0.00,meteobridge,2013-05-29 20:24:00,
2013-05-29 14:29:00,79.3,22.3,29.38,SSW,210,4.9,6.9,12,0.00,,,0.00,meteobridge,2013-05-29 20:29:00,
2013-05-29 14:34:00,81.5,19.8,29.38,SSW,203,4.0,6.9,10,0.00,,,0.00,meteobridge,2013-05-29 20:34:00,
2013-05-29 14:39:00,81.5,19.8,29.38,North,5,2.9,4.0,10,0.00,,,0.00,meteobridge,2013-05-29 20:39:00,
2013-05-29 14:44:00,81.5,19.8,29.38,SSW,202,4.9,6.9,10,0.00,,,0.00,meteobridge,2013-05-29 20:44:00,
2013-05-29 14:49:00,82.2,22.5,29.37,SW,222,2.9,8.1,11,0.00,,,0.00,meteobridge,2013-05-29 20:49:00,
2013-05-29 14:54:00,81.7,19.8,29.37,SSW,207,6.0,8.9,10,0.00,,,0.00,meteobridge,2013-05-29 20:54:00,
2013-05-29 14:59:00,81.1,16.9,29.37,WSW,245,0.0,6.9,9,0.00,,,0.00,meteobridge,2013-05-29 20:59:00,
2013-05-29 15:04:00,81.9,19.9,29.36,South,182,8.1,12.1,10,0.00,,,0.00,meteobridge,2013-05-29 21:04:00,
2013-05-29 15:09:00,81.3,19.6,29.37,WNW,287,4.0,8.1,10,0.00,,,0.00,meteobridge,2013-05-29 21:09:00,
2013-05-29 15:15:00,81.9,17.4,29.37,West,270,4.0,13.0,9,0.00,,,0.00,meteobridge,2013-05-29 21:15:00,
2013-05-29 15:20:00,81.1,19.4,29.37,NW,315,2.0,6.0,10,0.00,,,0.00,meteobridge,2013-05-29 21:20:00,
2013-05-29 15:25:00,80.6,19.0,29.36,WSW,249,6.0,12.1,10,0.00,,,0.00,meteobridge,2013-05-29 21:25:00,
2013-05-29 15:30:00,79.9,18.5,29.36,NNW,328,0.0,6.9,10,0.00,,,0.00,meteobridge,2013-05-29 21:30:00,
2013-05-29 15:35:00,79.5,20.5,29.36,SW,221,6.0,8.1,11,0.00,,,0.00,meteobridge,2013-05-29 21:35:00,
2013-05-29 15:40:00,80.2,21.0,29.36,SW,227,2.9,8.1,11,0.00,,,0.00,meteobridge,2013-05-29 21:40:00,
2013-05-29 15:45:00,82.0,20.1,29.36,SW,220,6.0,13.0,10,0.00,,,0.00,meteobridge,2013-05-29 21:45:00,
2013-05-29 15:50:00,81.3,17.1,29.35,SSW,207,2.0,11.0,9,0.00,,,0.00,meteobridge,2013-05-29 21:50:00,
2013-05-29 15:55:00,82.8,18.1,29.35,South,183,2.9,8.9,9,0.00,,,0.00,meteobridge,2013-05-29 21:55:00,
2013-05-29 16:00:00,83.5,18.7,29.35,SW,233,4.0,13.0,9,0.00,,,0.00,meteobridge,2013-05-29 22:00:00,
2013-05-29 16:05:00,82.9,18.3,29.36,NNW,331,11.0,11.0,9,0.00,,,0.00,meteobridge,2013-05-29 22:05:00,
2013-05-29 16:10:00,82.6,18.0,29.35,West,277,6.9,12.1,9,0.00,,,0.00,meteobridge,2013-05-29 22:10:00,
2013-05-29 16:15:00,82.0,14.9,29.35,South,182,6.0,11.0,8,0.00,,,0.00,meteobridge,2013-05-29 22:15:00,
2013-05-29 16:20:00,82.6,15.3,29.35,SW,221,6.9,12.1,8,0.00,,,0.00,meteobridge,2013-05-29 22:20:00,
2013-05-29 16:25:00,82.0,17.6,29.34,SW,219,8.9,10.1,9,0.00,,,0.00,meteobridge,2013-05-29 22:25:00,
2013-05-29 16:30:00,83.3,15.8,29.34,SW,232,4.9,6.0,8,0.00,,,0.00,meteobridge,2013-05-29 22:30:00,
2013-05-29 16:35:00,83.5,16.0,29.34,South,175,8.9,10.1,8,0.00,,,0.00,meteobridge,2013-05-29 22:35:00,
2013-05-29 16:40:00,82.4,12.2,29.34,SSE,155,4.9,14.1,7,0.00,,,0.00,meteobridge,2013-05-29 22:40:00,
2013-05-29 16:45:00,82.2,12.0,29.34,SSW,200,4.9,10.1,7,0.00,,,0.00,meteobridge,2013-05-29 22:45:00,
2013-05-29 16:50:00,82.2,12.0,29.34,SW,235,6.0,8.9,7,0.00,,,0.00,meteobridge,2013-05-29 22:50:00,
2013-05-29 16:55:00,82.6,12.2,29.34,SW,234,4.0,14.1,7,0.00,,,0.00,meteobridge,2013-05-29 22:55:00,
2013-05-29 17:00:00,82.6,12.2,29.34,WSW,238,4.0,14.1,7,0.00,,,0.00,meteobridge,2013-05-29 23:00:00,
2013-05-29 17:05:00,82.6,8.8,29.34,SSW,211,4.9,8.9,6,0.00,,,0.00,meteobridge,2013-05-29 23:05:00,
2013-05-29 17:10:00,82.9,12.6,29.34,NW,319,4.9,8.1,7,0.00,,,0.00,meteobridge,2013-05-29 23:10:00,
2013-05-29 17:15:00,82.9,9.1,29.34,WSW,242,8.1,17.9,6,0.00,,,0.00,meteobridge,2013-05-29 23:15:00,
2013-05-29 17:20:00,82.6,12.2,29.34,West,267,2.0,11.0,7,0.00,,,0.00,meteobridge,2013-05-29 23:20:00,
2013-05-29 17:26:00,82.2,8.6,29.33,WSW,246,4.9,11.0,6,0.00,,,0.00,meteobridge,2013-05-29 23:26:00,
2013-05-29 17:31:00,82.0,8.4,29.33,SW,229,12.1,14.1,6,0.00,,,0.00,meteobridge,2013-05-29 23:31:00,
2013-05-29 17:36:00,82.0,8.4,29.33,NW,318,4.9,8.1,6,0.00,,,0.00,meteobridge,2013-05-29 23:36:00,
2013-05-29 17:41:00,82.0,8.4,29.33,SW,232,2.0,14.1,6,0.00,,,0.00,meteobridge,2013-05-29 23:41:00,
2013-05-29 17:46:00,81.5,4.1,29.33,WNW,285,4.0,13.0,5,0.00,,,0.00,meteobridge,2013-05-29 23:46:00,
2013-05-29 17:51:00,81.1,3.7,29.33,WNW,292,6.0,12.1,5,0.00,,,0.00,meteobridge,2013-05-29 23:51:00,
2013-05-29 17:56:00,81.1,3.7,29.33,NW,323,4.0,12.1,5,0.00,,,0.00,meteobridge,2013-05-29 23:56:00,
2013-05-29 18:01:00,81.3,3.9,29.34,SSW,209,6.9,11.0,5,0.00,,,0.00,meteobridge,2013-05-30 00:01:00,
2013-05-29 18:06:00,81.0,3.7,29.34,West,265,12.1,17.0,5,0.00,,,0.00,meteobridge,2013-05-30 00:06:00,
2013-05-29 18:11:00,81.0,3.7,29.34,SW,230,4.0,12.1,5,0.00,,,0.00,meteobridge,2013-05-30 00:11:00,
2013-05-29 18:16:00,80.8,3.6,29.34,WNW,303,12.1,12.1,5,0.00,,,0.00,meteobridge,2013-05-30 00:16:00,
2013-05-29 18:21:00,80.4,3.4,29.34,WSW,246,13.0,13.0,5,0.00,,,0.00,meteobridge,2013-05-30 00:21:00,
2013-05-29 18:26:00,80.2,-1.7,29.34,WSW,240,6.0,10.1,4,0.00,,,0.00,meteobridge,2013-05-30 00:26:00,
2013-05-29 18:31:00,80.2,3.2,29.34,West,264,6.9,12.1,5,0.00,,,0.00,meteobridge,2013-05-30 00:31:00,
2013-05-29 18:36:00,80.1,3.0,29.34,SW,219,4.0,10.1,5,0.00,,,0.00,meteobridge,2013-05-30 00:36:00,
2013-05-29 18:41:00,79.9,6.8,29.35,SSW,196,2.9,8.9,6,0.00,,,0.00,meteobridge,2013-05-30 00:41:00,
2013-05-29 18:46:00,80.1,3.0,29.35,West,271,6.0,11.0,5,0.00,,,0.00,meteobridge,2013-05-30 00:46:00,
2013-05-29 18:51:00,79.9,2.8,29.35,NW,306,2.9,16.1,5,0.00,,,0.00,meteobridge,2013-05-30 00:51:00,
2013-05-29 18:56:00,79.5,2.7,29.35,West,281,4.0,12.1,5,0.00,,,0.00,meteobridge,2013-05-30 00:56:00,
2013-05-29 19:01:00,79.2,6.4,29.35,West,269,2.0,6.0,6,0.00,,,0.00,meteobridge,2013-05-30 01:01:00,
2013-05-29 19:06:00,78.8,9.5,29.35,NW,310,2.9,8.1,7,0.00,,,0.00,meteobridge,2013-05-30 01:06:00,
2013-05-29 19:11:00,78.6,5.9,29.35,West,262,4.9,12.1,6,0.00,,,0.00,meteobridge,2013-05-30 01:11:00,
2013-05-29 19:16:00,78.3,5.7,29.35,WNW,295,4.0,8.9,6,0.00,,,0.00,meteobridge,2013-05-30 01:16:00,
2013-05-29 19:21:00,77.9,8.8,29.35,West,281,2.0,8.1,7,0.00,,,0.00,meteobridge,2013-05-30 01:21:00,
2013-05-29 19:26:00,77.7,11.7,29.35,SW,216,4.0,8.1,8,0.00,,,0.00,meteobridge,2013-05-30 01:26:00,
2013-05-29 19:32:00,77.5,11.7,29.35,WSW,258,0.9,8.1,8,0.00,,,0.00,meteobridge,2013-05-30 01:32:00,
2013-05-29 19:37:00,77.5,11.7,29.36,NNE,16,0.9,8.1,8,0.00,,,0.00,meteobridge,2013-05-30 01:37:00,
2013-05-29 19:42:00,77.2,11.3,29.35,WSW,241,2.9,10.1,8,0.00,,,0.00,meteobridge,2013-05-30 01:42:00,
2013-05-29 19:47:00,76.8,11.1,29.36,NW,322,0.9,6.0,8,0.00,,,0.00,meteobridge,2013-05-30 01:47:00,
2013-05-29 19:52:00,76.8,13.6,29.36,West,273,0.9,6.9,9,0.00,,,0.00,meteobridge,2013-05-30 01:52:00,
2013-05-29 19:57:00,76.5,13.5,29.36,WNW,298,0.0,6.9,9,0.00,,,0.00,meteobridge,2013-05-30 01:57:00,
2013-05-29 20:02:00,76.3,13.3,29.36,West,267,2.9,6.0,9,0.00,,,0.00,meteobridge,2013-05-30 02:02:00,
2013-05-29 20:07:00,76.1,15.6,29.36,WNW,286,0.9,6.0,10,0.00,,,0.00,meteobridge,2013-05-30 02:07:00,
2013-05-29 20:12:00,75.9,15.4,29.36,NW,309,0.9,4.9,10,0.00,,,0.00,meteobridge,2013-05-30 02:12:00,
2013-05-29 20:17:00,75.7,15.3,29.36,NW,322,0.9,4.9,10,0.00,,,0.00,meteobridge,2013-05-30 02:17:00,
2013-05-29 20:22:00,75.7,15.3,29.36,WSW,247,0.9,6.0,10,0.00,,,0.00,meteobridge,2013-05-30 02:22:00,
2013-05-29 20:27:00,75.6,15.1,29.37,NW,313,4.0,8.9,10,0.00,,,0.00,meteobridge,2013-05-30 02:27:00,
2013-05-29 20:32:00,75.6,17.4,29.37,WNW,299,0.0,6.9,11,0.00,,,0.00,meteobridge,2013-05-30 02:32:00,
2013-05-29 20:37:00,75.4,17.2,29.37,NW,304,4.0,11.0,11,0.00,,,0.00,meteobridge,2013-05-30 02:37:00,
2013-05-29 20:42:00,75.4,17.2,29.37,WNW,296,4.0,8.1,11,0.00,,,0.00,meteobridge,2013-05-30 02:42:00,
2013-05-29 20:47:00,75.4,17.2,29.38,NW,314,0.9,4.0,11,0.00,,,0.00,meteobridge,2013-05-30 02:47:00,
2013-05-29 20:52:00,75.0,16.9,29.38,WSW,253,2.0,11.0,11,0.00,,,0.00,meteobridge,2013-05-30 02:52:00,
2013-05-29 20:57:00,75.0,16.9,29.38,WNW,300,2.0,6.9,11,0.00,,,0.00,meteobridge,2013-05-30 02:57:00,
2013-05-29 21:02:00,74.8,18.9,29.39,WNW,294,2.0,4.9,12,0.00,,,0.00,meteobridge,2013-05-30 03:02:00,
2013-05-29 21:07:00,74.5,18.5,29.39,NW,316,2.0,4.0,12,0.00,,,0.00,meteobridge,2013-05-30 03:07:00,
2013-05-29 21:12:00,74.5,18.5,29.39,WNW,283,0.9,6.0,12,0.00,,,0.00,meteobridge,2013-05-30 03:12:00,
2013-05-29 21:17:00,74.5,18.5,29.39,WNW,297,2.0,4.9,12,0.00,,,0.00,meteobridge,2013-05-30 03:17:00,
2013-05-29 21:22:00,74.5,18.5,29.40,WNW,291,2.0,6.0,12,0.00,,,0.00,meteobridge,2013-05-30 03:22:00,
2013-05-29 21:27:00,74.1,14.0,29.40,WNW,296,4.9,8.1,10,0.00,,,0.00,meteobridge,2013-05-30 03:27:00,
2013-05-29 21:32:00,73.8,11.5,29.40,NNW,334,4.0,4.9,9,0.00,,,0.00,meteobridge,2013-05-30 03:32:00,
2013-05-29 21:37:00,73.4,11.1,29.41,West,279,2.0,4.9,9,0.00,,,0.00,meteobridge,2013-05-30 03:37:00,
2013-05-29 21:42:00,73.0,10.9,29.41,NNW,331,2.0,4.0,9,0.00,,,0.00,meteobridge,2013-05-30 03:42:00,
2013-05-29 21:47:00,72.7,10.6,29.41,North,9,2.9,6.0,9,0.00,,,0.00,meteobridge,2013-05-30 03:47:00,
2013-05-29 21:53:00,72.7,10.6,29.42,NNW,337,0.0,4.0,9,0.00,,,0.00,meteobridge,2013-05-30 03:53:00,
2013-05-29 21:57:00,72.3,10.2,29.42,WSW,253,0.9,2.9,9,0.00,,,0.00,meteobridge,2013-05-30 03:57:00,
2013-05-29 22:01:00,72.3,10.2,29.42,NW,319,0.0,2.0,9,0.00,,,0.00,meteobridge,2013-05-30 04:01:00,
2013-05-29 22:04:00,72.1,10.2,29.42,NW,319,2.0,2.0,9,0.00,,,0.00,meteobridge,2013-05-30 04:04:00,
2013-05-29 22:09:00,71.8,9.9,29.43,NNW,335,0.0,2.0,9,0.00,,,0.00,meteobridge,2013-05-30 04:09:00,
2013-05-29 22:14:00,71.8,9.9,29.43,NW,317,0.9,2.0,9,0.00,,,0.00,meteobridge,2013-05-30 04:14:00,
2013-05-29 22:20:00,71.4,9.7,29.44,NW,304,0.9,2.9,9,0.00,,,0.00,meteobridge,2013-05-30 04:20:00,
2013-05-29 22:25:00,71.4,12.0,29.44,WNW,303,0.9,2.0,10,0.00,,,0.00,meteobridge,2013-05-30 04:25:00,
2013-05-29 22:30:00,71.2,11.8,29.44,NW,315,0.9,2.9,10,0.00,,,0.00,meteobridge,2013-05-30 04:30:00,
2013-05-29 22:35:00,71.1,11.7,29.45,NNW,334,2.0,4.0,10,0.00,,,0.00,meteobridge,2013-05-30 04:35:00,
2013-05-29 22:40:00,70.9,11.7,29.45,NW,322,4.0,4.9,10,0.00,,,0.00,meteobridge,2013-05-30 04:40:00,
2013-05-29 22:45:00,71.1,11.7,29.45,NNW,333,2.9,4.9,10,0.00,,,0.00,meteobridge,2013-05-30 04:45:00,
2013-05-29 22:50:00,71.1,11.7,29.45,NNW,348,4.0,8.9,10,0.00,,,0.00,meteobridge,2013-05-30 04:50:00,
2013-05-29 22:55:00,70.9,11.7,29.46,NW,318,2.0,6.0,10,0.00,,,0.00,meteobridge,2013-05-30 04:55:00,
2013-05-29 23:00:00,70.5,11.3,29.46,NNW,341,4.0,6.0,10,0.00,,,0.00,meteobridge,2013-05-30 05:00:00,
2013-05-29 23:05:00,70.3,11.1,29.47,NNW,334,2.0,4.9,10,0.00,,,0.00,meteobridge,2013-05-30 05:05:00,
2013-05-29 23:10:00,70.2,13.1,29.47,NNW,344,6.0,6.9,11,0.00,,,0.00,meteobridge,2013-05-30 05:10:00,
2013-05-29 23:15:00,70.0,13.1,29.47,NW,315,2.0,8.1,11,0.00,,,0.00,meteobridge,2013-05-30 05:15:00,
2013-05-29 23:20:00,69.6,12.7,29.47,NNW,327,2.0,4.9,11,0.00,,,0.00,meteobridge,2013-05-30 05:20:00,
2013-05-29 23:25:00,69.3,12.6,29.47,NW,325,4.0,6.9,11,0.00,,,0.00,meteobridge,2013-05-30 05:25:00,
2013-05-29 23:30:00,69.1,14.4,29.47,NW,306,4.9,4.9,12,0.00,,,0.00,meteobridge,2013-05-30 05:30:00,
2013-05-29 23:35:00,68.7,14.0,29.47,NW,311,2.0,10.1,12,0.00,,,0.00,meteobridge,2013-05-30 05:35:00,
2013-05-29 23:40:00,68.5,13.8,29.47,North,5,2.0,2.9,12,0.00,,,0.00,meteobridge,2013-05-30 05:40:00,
2013-05-29 23:45:00,68.4,13.8,29.47,North,5,2.0,4.0,12,0.00,,,0.00,meteobridge,2013-05-30 05:45:00,
2013-05-29 23:50:00,68.0,13.5,29.47,NNW,338,0.9,0.9,12,0.00,,,0.00,meteobridge,2013-05-30 05:50:00,
2013-05-29 23:55:00,67.6,15.1,29.48,NW,319,0.9,2.0,13,0.00,,,0.00,meteobridge,2013-05-30 05:55:00,